TimeCST,TemperatureF,Dew PointF,Humidity,Sea Level PressureIn,VisibilityMPH,Wind Direction,Wind SpeedMPH,Gust SpeedMPH,PrecipitationIn,Events,Conditions,WindDirDegrees,DateUTC
12:53 AM,6.1,1.9,83,30.44,9.0,Calm,Calm,-,N/A,,Clear,0,2013-01-15 06:53:00
1:53 AM,7.0,3.0,84,30.45,8.0,Calm,Calm,-,N/A,,Clear,0,2013-01-15 07:53:00
2:53 AM,6.1,1.9,83,30.44,9.0,Calm,Calm,-,N/A,,Clear,0,2013-01-15 08:53:00
3:53 AM,6.1,3.0,87,30.43,9.0,Calm,Calm,-,N/A,,Clear,0,2013-01-15 09:53:00
4:53 AM,6.1,1.9,83,30.41,7.0,Calm,Calm,-,N/A,,Clear,0,2013-01-15 10:53:00
6:53 AM,3.9,-0.9,80,30.40,9.0,Calm,Calm,-,N/A,,Clear,0,2013-01-15 12:53:00
7:53 AM,3.9,-0.9,80,30.41,3.0,Calm,Calm,-,N/A,,Haze,0,2013-01-15 13:53:00
8:53 AM,9.0,5.0,84,30.42,7.0,Calm,Calm,-,N/A,,Clear,0,2013-01-15 14:53:00
9:53 AM,17.1,12.9,84,30.40,7.0,Calm,Calm,-,N/A,,Clear,0,2013-01-15 15:53:00
10:35 AM,21.2,15.8,80,30.34,1.8,Calm,Calm,-,N/A,,Haze,0,2013-01-15 16:35:00
10:51 AM,24.8,15.8,69,30.33,2.5,Calm,Calm,-,N/A,,Haze,0,2013-01-15 16:51:00
10:53 AM,24.1,16.0,71,30.38,3.0,Calm,Calm,-,N/A,,Haze,0,2013-01-15 16:53:00
11:53 AM,30.0,12.9,49,30.34,10.0,SW,12.7,-,N/A,,Clear,220,2013-01-15 17:53:00
12:53 PM,30.9,12.9,47,30.31,10.0,SW,8.1,-,0.00,,Clear,220,2013-01-15 18:53:00
1:53 PM,32.0,12.9,45,30.28,10.0,SSW,9.2,17.3,0.00,,Clear,210,2013-01-15 19:53:00
2:53 PM,32.0,14.0,48,30.27,10.0,SSW,8.1,-,0.00,,Clear,200,2013-01-15 20:53:00
3:53 PM,30.9,12.9,47,30.26,10.0,SSW,10.4,-,N/A,,Clear,210,2013-01-15 21:53:00
4:53 PM,28.9,12.9,51,30.25,10.0,SSW,6.9,-,N/A,,Clear,200,2013-01-15 22:53:00
5:53 PM,28.0,12.0,51,30.24,10.0,South,6.9,-,N/A,,Clear,190,2013-01-15 23:53:00
6:53 PM,27.0,12.0,53,30.22,10.0,South,8.1,-,N/A,,Clear,190,2013-01-16 00:53:00
7:53 PM,26.1,12.0,55,30.20,10.0,SSW,9.2,-,N/A,,Clear,200,2013-01-16 01:53:00
8:53 PM,25.0,12.0,58,30.17,10.0,SW,6.9,-,N/A,,Clear,220,2013-01-16 02:53:00
9:53 PM,21.9,12.0,66,30.15,10.0,WSW,4.6,-,N/A,,Clear,240,2013-01-16 03:53:00
10:53 PM,21.0,10.9,65,30.11,10.0,South,5.8,-,N/A,,Clear,190,2013-01-16 04:53:00
11:53 PM,19.9,10.9,68,30.08,10.0,SW,5.8,-,N/A,,Clear,220,2013-01-16 05:53:00